NV115 YMEN-YSWG

Flight info

Callsign NV115
Flight time 0h 38m
Altitude 19000
Route DOSEL W569 BOGES W654 WG
Aircraft E50P/L-SBDFGRWY/LB2

Departure

Time 2026-05-08 04:15
Airport Melbourne Essendon Airport (YMEN)

Arrival

Time 2026-05-08 04:53
Airport Wagga Wagga Airport (YSWG)
Time Latitude Longitude Altitude Speed Heading
2026-05-08 04:06 -37.72304 144.89854 278 ft 0 kts 328°
2026-05-08 04:12 -37.72300 144.89850 278 ft 4 kts 325°
2026-05-08 04:12 -37.72243 144.89834 280 ft 13 kts
2026-05-08 04:12 -37.72165 144.89932 282 ft 20 kts 81°
2026-05-08 04:12 -37.72162 144.89971 283 ft 0 kts 86°
2026-05-08 04:13 -37.72162 144.89972 283 ft 2 kts 86°
2026-05-08 04:14 -37.72160 144.90032 284 ft 13 kts 88°
2026-05-08 04:14 -37.72192 144.90083 283 ft 14 kts 178°
2026-05-08 04:14 -37.72571 144.90101 268 ft 94 kts 178°
2026-05-08 04:14 -37.73357 144.90135 665 ft 128 kts 178°
2026-05-08 04:15 -37.74336 144.90223 1363 ft 153 kts 181°
2026-05-08 04:15 -37.75467 144.90380 2205 ft 172 kts 179°
2026-05-08 04:15 -37.76679 144.90621 3169 ft 180 kts 176°
2026-05-08 04:15 -37.77928 144.90912 4122 ft 183 kts 178°
2026-05-08 04:16 -37.79274 144.90870 4467 ft 212 kts 193°
2026-05-08 04:16 -37.80690 144.90052 4442 ft 245 kts 218°
2026-05-08 04:16 -37.81762 144.88264 4317 ft 264 kts 243°
2026-05-08 04:16 -37.82059 144.85959 4268 ft 271 kts 269°
2026-05-08 04:17 -37.81465 144.83676 4271 ft 281 kts 295°
2026-05-08 04:17 -37.80079 144.81896 4267 ft 293 kts 321°
2026-05-08 04:17 -37.78141 144.80990 4261 ft 308 kts 347°
2026-05-08 04:17 -37.75986 144.81167 4257 ft 310 kts 13°
2026-05-08 04:18 -37.74035 144.82301 4258 ft 311 kts 33°
2026-05-08 04:18 -37.72514 144.84224 4257 ft 311 kts 59°
2026-05-08 04:18 -37.71538 144.86641 4443 ft 304 kts 70°
2026-05-08 04:18 -37.70746 144.89001 5750 ft 278 kts 71°
2026-05-08 04:19 -37.70023 144.91141 7070 ft 259 kts 72°
2026-05-08 04:19 -37.69163 144.93207 7630 ft 274 kts 59°
2026-05-08 04:19 -37.67789 144.94913 8335 ft 279 kts 37°
2026-05-08 04:19 -37.66199 144.96155 9447 ft 265 kts 32°
2026-05-08 04:20 -37.64607 144.97394 10099 ft 272 kts 37°
2026-05-08 04:20 -37.63061 144.98784 10758 ft 274 kts 39°
2026-05-08 04:20 -37.61500 145.00191 11431 ft 277 kts 38°
2026-05-08 04:20 -37.59906 145.01581 12078 ft 281 kts 38°
2026-05-08 04:21 -37.58292 145.03000 12686 ft 285 kts 38°
2026-05-08 04:21 -37.56660 145.04436 13337 ft 287 kts 37°
2026-05-08 04:21 -37.55012 145.05887 13970 ft 290 kts 37°
2026-05-08 04:21 -37.53346 145.07353 14548 ft 293 kts 37°
2026-05-08 04:22 -37.51667 145.08826 15137 ft 295 kts 37°
2026-05-08 04:22 -37.49979 145.10311 15731 ft 297 kts 37°
2026-05-08 04:22 -37.48276 145.11803 16327 ft 299 kts 37°
2026-05-08 04:22 -37.46560 145.13310 16943 ft 301 kts 37°
2026-05-08 04:23 -37.44834 145.14823 17572 ft 304 kts 37°
2026-05-08 04:23 -37.43100 145.16341 18235 ft 304 kts 36°
2026-05-08 04:23 -37.41356 145.17870 18814 ft 307 kts 36°
2026-05-08 04:23 -37.39591 145.19415 19222 ft 316 kts 36°
2026-05-08 04:24 -37.37723 145.21051 19234 ft 338 kts 36°
2026-05-08 04:24 -37.35733 145.22789 19240 ft 357 kts 36°
2026-05-08 04:24 -37.33654 145.24604 19243 ft 371 kts 36°
2026-05-08 04:24 -37.31507 145.26479 19242 ft 381 kts 36°
2026-05-08 04:25 -37.29334 145.28375 19234 ft 389 kts 35°
2026-05-08 04:25 -37.27063 145.30354 19240 ft 395 kts 36°
2026-05-08 04:25 -37.24826 145.32303 19240 ft 399 kts 35°
2026-05-08 04:25 -37.22527 145.34301 19240 ft 402 kts 35°
2026-05-08 04:26 -37.20222 145.36306 19241 ft 403 kts 35°
2026-05-08 04:26 -37.17911 145.38316 19235 ft 404 kts 35°
2026-05-08 04:26 -37.15685 145.40413 19231 ft 401 kts 43°
2026-05-08 04:26 -37.13604 145.42773 19229 ft 401 kts 43°
2026-05-08 04:27 -37.11502 145.45082 19233 ft 402 kts 41°
2026-05-08 04:27 -37.09388 145.47375 19230 ft 402 kts 42°
2026-05-08 04:27 -37.07288 145.49694 19227 ft 402 kts 43°
2026-05-08 04:27 -37.05197 145.52014 19228 ft 402 kts 43°
2026-05-08 04:28 -37.03098 145.54319 19228 ft 401 kts 42°
2026-05-08 04:28 -37.01001 145.56618 19228 ft 401 kts 42°
2026-05-08 04:28 -36.98905 145.58920 19213 ft 400 kts 42°
2026-05-08 04:28 -36.96838 145.61191 19215 ft 400 kts 42°
2026-05-08 04:29 -36.94750 145.63481 19217 ft 400 kts 42°
2026-05-08 04:29 -36.92659 145.65769 19217 ft 399 kts 42°
2026-05-08 04:29 -36.90572 145.68055 19215 ft 399 kts 42°
2026-05-08 04:29 -36.88481 145.70344 19217 ft 399 kts 42°
2026-05-08 04:30 -36.86390 145.72630 19216 ft 399 kts 42°
2026-05-08 04:30 -36.84283 145.74880 19212 ft 398 kts 40°
2026-05-08 04:30 -36.82156 145.77097 19214 ft 398 kts 41°
2026-05-08 04:30 -36.80052 145.79351 19218 ft 399 kts 41°
2026-05-08 04:31 -36.77936 145.81589 19216 ft 399 kts 40°
2026-05-08 04:31 -36.75802 145.83814 19217 ft 399 kts 40°
2026-05-08 04:31 -36.73673 145.86045 19216 ft 399 kts 41°
2026-05-08 04:31 -36.71554 145.88277 19217 ft 399 kts 41°
2026-05-08 04:32 -36.69429 145.90508 19209 ft 399 kts 40°
2026-05-08 04:32 -36.67299 145.92735 19210 ft 399 kts 40°
2026-05-08 04:32 -36.65174 145.94960 19210 ft 399 kts 40°
2026-05-08 04:32 -36.63048 145.97186 19211 ft 399 kts 40°
2026-05-08 04:33 -36.60947 145.99381 19203 ft 400 kts 40°
2026-05-08 04:33 -36.58817 146.01606 19203 ft 400 kts 40°
2026-05-08 04:33 -36.56687 146.03832 19203 ft 400 kts 40°
2026-05-08 04:33 -36.54556 146.06052 19204 ft 400 kts 40°
2026-05-08 04:34 -36.52417 146.08284 19199 ft 400 kts 40°
2026-05-08 04:34 -36.50281 146.10507 19199 ft 401 kts 40°
2026-05-08 04:34 -36.48145 146.12730 19199 ft 401 kts 40°
2026-05-08 04:34 -36.46004 146.14957 19199 ft 401 kts 40°
2026-05-08 04:35 -36.43863 146.17183 19200 ft 401 kts 40°
2026-05-08 04:35 -36.41721 146.19408 19200 ft 402 kts 40°
2026-05-08 04:35 -36.39578 146.21629 19195 ft 402 kts 40°
2026-05-08 04:35 -36.37469 146.23818 19185 ft 402 kts 40°
2026-05-08 04:36 -36.35288 146.26078 19188 ft 402 kts 40°
2026-05-08 04:36 -36.33142 146.28299 19188 ft 402 kts 40°
2026-05-08 04:36 -36.30996 146.30519 19189 ft 402 kts 40°
2026-05-08 04:36 -36.28852 146.32738 19202 ft 402 kts 40°
2026-05-08 04:37 -36.26704 146.34955 19202 ft 402 kts 40°
2026-05-08 04:37 -36.24552 146.37178 19202 ft 402 kts 40°
2026-05-08 04:37 -36.22400 146.39396 19198 ft 402 kts 40°
2026-05-08 04:37 -36.20249 146.41614 19197 ft 403 kts 40°
2026-05-08 04:38 -36.18122 146.43806 19198 ft 403 kts 40°
2026-05-08 04:38 -36.15971 146.46018 19198 ft 403 kts 40°
2026-05-08 04:38 -36.13817 146.48235 19198 ft 403 kts 40°
2026-05-08 04:38 -36.11658 146.50453 19198 ft 403 kts 40°
2026-05-08 04:39 -36.09504 146.52666 19199 ft 403 kts 40°
2026-05-08 04:39 -36.07340 146.54887 19189 ft 403 kts 40°
2026-05-08 04:39 -36.05181 146.57100 19189 ft 403 kts 40°
2026-05-08 04:39 -36.03021 146.59315 19190 ft 404 kts 40°
2026-05-08 04:40 -36.00856 146.61530 19186 ft 404 kts 40°
2026-05-08 04:40 -35.98693 146.63745 19185 ft 404 kts 40°
2026-05-08 04:40 -35.96526 146.65959 19187 ft 404 kts 40°
2026-05-08 04:40 -35.94383 146.68149 19187 ft 404 kts 40°
2026-05-08 04:41 -35.92210 146.70369 18975 ft 410 kts 40°
2026-05-08 04:41 -35.90010 146.72612 18461 ft 405 kts 40°
2026-05-08 04:41 -35.87894 146.74771 17910 ft 388 kts 40°
2026-05-08 04:41 -35.85825 146.76878 17399 ft 384 kts 40°
2026-05-08 04:42 -35.83763 146.78976 16892 ft 384 kts 40°
2026-05-08 04:42 -35.81706 146.81070 16386 ft 384 kts 40°
2026-05-08 04:42 -35.79650 146.83159 15885 ft 383 kts 40°
2026-05-08 04:42 -35.78261 146.84572 15546 ft 382 kts 40°
2026-05-08 04:43 -35.76239 146.86624 15044 ft 382 kts 40°
2026-05-08 04:43 -35.74173 146.88721 14533 ft 378 kts 40°
2026-05-08 04:43 -35.72160 146.90761 14042 ft 373 kts 40°
2026-05-08 04:43 -35.70198 146.92751 13528 ft 368 kts 40°
2026-05-08 04:44 -35.68238 146.94735 13041 ft 362 kts 40°
2026-05-08 04:44 -35.66302 146.96694 12567 ft 358 kts 40°
2026-05-08 04:44 -35.64392 146.98626 12098 ft 353 kts 40°
2026-05-08 04:44 -35.62496 147.00541 11633 ft 356 kts 40°
2026-05-08 04:45 -35.60581 147.02478 11163 ft 356 kts 40°
2026-05-08 04:45 -35.58671 147.04404 10682 ft 354 kts 40°
2026-05-08 04:45 -35.56750 147.06342 9999 ft 358 kts 40°
2026-05-08 04:45 -35.54833 147.08275 9478 ft 353 kts 41°
2026-05-08 04:46 -35.52952 147.10171 9021 ft 347 kts 40°
2026-05-08 04:46 -35.51117 147.12019 8955 ft 336 kts 40°
2026-05-08 04:46 -35.49319 147.13832 8633 ft 338 kts 40°
2026-05-08 04:46 -35.47486 147.15670 8033 ft 340 kts 40°
2026-05-08 04:47 -35.45662 147.17502 7586 ft 336 kts 40°
2026-05-08 04:47 -35.43853 147.19322 7112 ft 334 kts 40°
2026-05-08 04:47 -35.42062 147.21119 6661 ft 332 kts 41°
2026-05-08 04:47 -35.40282 147.22904 6195 ft 330 kts 40°
2026-05-08 04:48 -35.38534 147.24659 5721 ft 328 kts 40°
2026-05-08 04:48 -35.36776 147.26420 5298 ft 325 kts 40°
2026-05-08 04:48 -35.35026 147.28172 4850 ft 323 kts 40°
2026-05-08 04:48 -35.33291 147.29910 4425 ft 320 kts 39°
2026-05-08 04:49 -35.31580 147.31622 4063 ft 316 kts 39°
2026-05-08 04:49 -35.29858 147.33335 3936 ft 317 kts 39°
2026-05-08 04:49 -35.28177 147.35021 3602 ft 312 kts 39°
2026-05-08 04:49 -35.26490 147.36712 3451 ft 314 kts 39°
2026-05-08 04:50 -35.24790 147.38407 3467 ft 317 kts 39°
2026-05-08 04:50 -35.23080 147.40114 3345 ft 315 kts 38°
2026-05-08 04:50 -35.21499 147.41940 2875 ft 313 kts 51°
2026-05-08 04:50 -35.20264 147.44062 2546 ft 305 kts 55°
2026-05-08 04:51 -35.19074 147.46011 2370 ft 269 kts 52°
2026-05-08 04:51 -35.18017 147.47771 2191 ft 245 kts 55°
2026-05-08 04:51 -35.17145 147.49300 2092 ft 192 kts 57°
2026-05-08 04:51 -35.16454 147.50514 1914 ft 160 kts 45°
2026-05-08 04:52 -35.15526 147.50913 1634 ft 132 kts 341°
2026-05-08 04:52 -35.14930 147.50350 1407 ft 101 kts 287°
2026-05-08 04:52 -35.15039 147.49649 1195 ft 86 kts 229°
2026-05-08 04:52 -35.15363 147.49068 1013 ft 83 kts 242°
2026-05-08 04:53 -35.15646 147.48437 898 ft 85 kts 239°
2026-05-08 04:53 -35.15924 147.47810 766 ft 81 kts 240°
2026-05-08 04:53 -35.16159 147.47271 724 ft 63 kts 240°
2026-05-08 04:53 -35.16267 147.46992 715 ft 7 kts 303°
2026-05-08 04:54 -35.16193 147.46937 713 ft 19 kts 331°
2026-05-08 04:54 -35.16148 147.46893 713 ft 8 kts 252°
2026-05-08 04:54 -35.16197 147.46775 712 ft 23 kts 242°
2026-05-08 04:54 -35.16293 147.46558 714 ft 33 kts 243°
2026-05-08 04:55 -35.16275 147.46445 713 ft 18 kts 333°
2026-05-08 04:55 -35.16116 147.46343 695 ft 32 kts 331°
2026-05-08 04:55 -35.15946 147.46263 698 ft 21 kts 353°
2026-05-08 04:55 -35.15918 147.46259 695 ft 0 kts 353°